Weather History for St. Louis, MO

Change the Weather History Date:

Monday, November 26, 2012

  Actual Average Record
Temperature  
Mean Temperature 37 °F 42 °F  
Max Temperature 44 °F 50 °F 76 °F (1965)
Min Temperature 30 °F 34 °F 7 °F (1977)
Degree Days  
Heating Degree Days 28 23  
Month to date heating degree days 479 451  
Since 1 July heating degree days 792 727  
Cooling Degree Days 0 0  
Month to date cooling degree days 4 0  
Year to date cooling degree days 2209 1642  
Moisture  
Dew Point 24 °F    
Average Humidity 58    
Maximum Humidity 70    
Minimum Humidity 45    
Precipitation  
Precipitation 0.00 in 0.13 in 2.32 in (1887)
Month to date precipitation 1.40 3.39  
Year to date precipitation 30.30 37.60  
Snow  
Snow 0.00 in 0.00 in 7.60 in (1975)
Month to date snowfall 0.0 0.5  
Since 1 July snowfall 0.0 0.5  
Since 1 September snowfall 0.0 0.5  
Snow Depth 0.00 in    
Sea Level Pressure  
Sea Level Pressure 30.25 in    
Wind  
Wind Speed 10 mph (NNE)    
Max Wind Speed 21 mph    
Max Gust Speed 28 mph    
Visibility 10 miles    
Events      
T = Trace of Precipitation, MM = Missing Value Source: NWS Daily Summary

Daily Weather History Graph

Daily Weather History Graph

Search for Another Location

Airport:

Trip Planner

Search our weather history database for the weather conditions in past years. The results will help you decide how hot, cold, wet, or windy it might be!

Date:

Astronomy

Nov. 26, 2012 Rise Set
Actual Time 6:56 AM CST 4:41 PM CST
Civil Twilight 6:27 AM CST 5:10 PM CST
Nautical Twilight 5:54 AM CST 5:43 PM CST
Astronomical Twilight 5:22 AM CST 6:15 PM CST
Moon 3:33 PM CST (11/26) 5:07 AM CST (11/26)
Length of Visible Light 10h 43m
Length of Day
9h 45m
Waxing Gibbous, 97% of the Moon is Illuminated
Nov 26
Waxing Gibbous
Nov 28
Full
Dec 6
Last Quarter
Dec 13
New
Dec 19
First Quarter

Hourly Weather History & Observations

Time (CST) Temp. Windchill Dew Point Humidity Pressure Visibility Wind Dir Wind Speed Gust Speed Precip Events Conditions
12:51 AM 35.1 °F 32.2 °F 27.0 °F 72% 30.08 in 10.0 mi NE 3.5 mph - N/A   Clear
1:51 AM 36.0 °F 33.3 °F 26.1 °F 67% 30.09 in 10.0 mi ENE 3.5 mph - N/A   Clear
2:51 AM 37.0 °F 31.6 °F 27.0 °F 67% 30.09 in 10.0 mi NNE 6.9 mph - N/A   Clear
3:51 AM 36.0 °F 29.6 °F 27.0 °F 70% 30.10 in 10.0 mi NNE 8.1 mph - N/A   Clear
4:51 AM 35.1 °F 30.1 °F 26.1 °F 70% 30.12 in 10.0 mi NE 5.8 mph - N/A   Partly Cloudy
5:51 AM 36.0 °F 31.1 °F 26.1 °F 67% 30.14 in 10.0 mi NNE 5.8 mph - N/A   Partly Cloudy
6:51 AM 36.0 °F 30.3 °F 26.1 °F 67% 30.17 in 10.0 mi NNE 6.9 mph - N/A   Mostly Cloudy
7:51 AM 37.0 °F 32.4 °F 26.1 °F 65% 30.19 in 10.0 mi NE 5.8 mph - N/A   Mostly Cloudy
8:51 AM 37.4 °F 30.3 °F 26.6 °F 65% 30.20 in 10.0 mi NE 10.4 mph - N/A   Mostly Cloudy
9:51 AM 39.0 °F 31.4 °F 27.0 °F 62% 30.23 in 10.0 mi NE 12.7 mph - N/A   Mostly Cloudy
10:51 AM 41.0 °F 36.4 °F 26.1 °F 55% 30.24 in 10.0 mi NE 6.9 mph - N/A   Mostly Cloudy
11:51 AM 43.0 °F 37.7 °F 25.0 °F 49% 30.24 in 10.0 mi North 9.2 mph - N/A   Overcast
12:51 PM 44.1 °F 38.6 °F 25.0 °F 47% 30.23 in 10.0 mi NNE 10.4 mph - N/A   Mostly Cloudy
1:51 PM 44.6 °F 37.4 °F 24.8 °F 46% 30.21 in 10.0 mi North 16.1 mph 23.0 mph N/A   Overcast
2:51 PM 43.0 °F 35.4 °F 27.0 °F 53% 30.24 in 10.0 mi North 16.1 mph 21.9 mph N/A   Overcast
3:51 PM 42.1 °F 35.2 °F 23.0 °F 47% 30.27 in 10.0 mi North 12.7 mph - N/A   Mostly Cloudy
4:51 PM 42.1 °F 34.2 °F 23.0 °F 47% 30.29 in 10.0 mi North 16.1 mph 20.7 mph N/A   Overcast
5:51 PM 39.0 °F 30.3 °F 23.0 °F 53% 30.32 in 10.0 mi North 16.1 mph 23.0 mph N/A   Overcast
6:51 PM 37.0 °F 28.5 °F 26.1 °F 65% 30.35 in 10.0 mi North 13.8 mph 18.4 mph N/A   Overcast
7:51 PM 35.1 °F 26.4 °F 26.1 °F 70% 30.37 in 9.0 mi North 12.7 mph - N/A   Overcast
8:51 PM 33.1 °F 23.9 °F 21.0 °F 61% 30.39 in 9.0 mi North 12.7 mph - N/A   Mostly Cloudy
9:51 PM 32.0 °F 23.0 °F 19.9 °F 61% 30.40 in 10.0 mi NNW 11.5 mph - N/A   Mostly Cloudy
10:51 PM 32.0 °F 23.6 °F 19.9 °F 61% 30.41 in 10.0 mi North 10.4 mph - N/A   Mostly Cloudy
11:51 PM 30.0 °F 22.4 °F 18.0 °F 61% 30.42 in 10.0 mi NNW 8.1 mph - N/A   Partly Cloudy